Showing default

KUIPER-00581, 69273

Orbit data source: Space-Track

KUIPER-00581, 69273 is a payload satellite owned by Kuiper Systems (US) in LEO that was launched on Fri, 29 May 2026 UTC via an ATLAS V 551 launch vehicle from the Air Force Eastern Test Range (AFETR). Payload-class satellites include a variety of spacecraft equipped with specific instruments for various scientific and technological missions. These include communications satellites like Starlink; space stations such as the ISS; scientific satellites like the Hubble; Earth observation satellites from companies like Planet Labs, Umbra, and HawkEye 360; GPS; miniature CubeSats for education and research; and military/defense satellites.

Loading next visibility...
Identifier
69273, 2026-118G
Orbit
LEO
Country
Flag of USUS
Related business
Manufacturer
Kuiper Systems
Mission
Operational spacecraft
Bus & Motor
KUIPER, Unknown motor
Mass
~490 kg wet, ~490 kg dry
Launch date (UTC)
2026-05-29 (3 weeks ago)
Launch vehicle
ATLAS V 551
Launch site
Air Force Eastern Test Range (AFETR)
Object type
Payload
Rocket body
Debris
Shape & HBR
Unknown
Radar Cross Section
Large (>1 m²)

Expand to show TLE details & history
Last TLE update: 12 hours ago

TLE from 12 hours ago
0 KUIPER-00581
1 69273U 26118G   26171.32611351  .00019234  00000-0  53684-3 0  9992
2 69273  51.8658  38.2105 0008911 186.5039 173.5833 15.36713457  4558
Epoch: 2026-06-20T07:49Z
TLE epoch observation values (Epoch: 2026-06-20T07:49:36.207Z)
Latitude
-0.00001°
Longitude
12.26728°
Altitude
462.649 km
Speed
7.633 km/s
True Right ascension
02h 32m 50s
True Declination
0° 00' 00"
Sunlit
Object was in daylight at epoch
Visualization orbit readout
Latitude
Unknown
Longitude
Unknown
Altitude
Unknown
Speed
Unknown
Apparent Right ascension
Unknown
Apparent Declination
Unknown
Sunlit
N/A
Visualization observer readout
Local Sidereal Time
07:13:04
Azimuth
Unknown
Elevation
Unknown
Doppler factor
Unknown
Orbital elements
Apogee altitude
462.394 km
Perigee altitude
450.214 km
Semi-major axis
6,834.441 km
Eccentricity
0.00089
Inclination
51.8658°
RAAN
38.2105°
Arg. of periapsis
186.5039°
True anomaly
173.5947°
Mean anomaly
173.5833°
Eccentric anomaly
173.589°
Mean motion
3.84139 °/min
Orbital period
93.72 mins
BSTAR
0.00053684
Loading maneuver chart data...
Computing Atmospheric mass density...
Loading historical data...
Loading historical data...
Loading historical data...
Loading historical data...
Loading historical data...
Loading historical data...
Loading historical data...

Documentation

Showing up to 5 results
|